TimePDT,TemperatureF,Dew PointF,Humidity,Sea Level PressureIn,VisibilityMPH,Wind Direction,Wind SpeedMPH,Gust SpeedMPH,PrecipitationIn,Events,Conditions,WindDirDegrees,DateUTC
12:53 AM,73.0,57.9,59,29.81,10.0,Calm,Calm,-,N/A,,Clear,0,2013-08-19 07:53:00
1:53 AM,71.1,55.9,59,29.80,10.0,SW,3.5,-,N/A,,Clear,220,2013-08-19 08:53:00
2:53 AM,71.1,55.0,57,29.80,10.0,East,3.5,-,N/A,,Clear,90,2013-08-19 09:53:00
3:53 AM,69.1,55.9,63,29.80,10.0,SW,3.5,-,N/A,,Clear,220,2013-08-19 10:53:00
4:53 AM,68.0,55.9,65,29.82,10.0,East,4.6,-,N/A,,Clear,100,2013-08-19 11:53:00
5:53 AM,68.0,54.0,61,29.83,10.0,Calm,Calm,-,N/A,,Clear,0,2013-08-19 12:53:00
6:53 AM,68.0,54.0,61,29.85,10.0,SE,3.5,-,N/A,,Clear,140,2013-08-19 13:53:00
7:53 AM,68.0,55.0,63,29.87,10.0,SE,8.1,-,N/A,,Clear,130,2013-08-19 14:53:00
8:53 AM,71.1,55.9,59,29.88,10.0,ESE,3.5,-,N/A,,Clear,120,2013-08-19 15:53:00
9:53 AM,75.0,55.0,50,29.88,10.0,Calm,Calm,-,N/A,,Clear,0,2013-08-19 16:53:00
10:53 AM,81.0,57.9,45,29.88,10.0,WNW,5.8,-,N/A,,Clear,300,2013-08-19 17:53:00
11:53 AM,82.9,60.1,46,29.88,10.0,NW,5.8,-,N/A,,Clear,320,2013-08-19 18:53:00
12:53 PM,84.9,60.1,43,29.86,10.0,NW,8.1,-,N/A,,Clear,310,2013-08-19 19:53:00
1:53 PM,86.0,57.9,38,29.84,10.0,WNW,11.5,-,N/A,,Clear,290,2013-08-19 20:53:00
2:53 PM,84.0,57.9,41,29.84,10.0,WNW,15.0,-,N/A,,Clear,300,2013-08-19 21:53:00
3:53 PM,82.9,57.9,42,29.83,10.0,NW,16.1,-,N/A,,Clear,310,2013-08-19 22:53:00
4:53 PM,80.1,57.9,47,29.82,10.0,West,16.1,-,N/A,,Partly Cloudy,280,2013-08-19 23:53:00
5:53 PM,77.0,57.9,52,29.82,10.0,WNW,12.7,-,N/A,,Partly Cloudy,290,2013-08-20 00:53:00
6:53 PM,73.0,57.9,59,29.83,10.0,WNW,11.5,-,N/A,,Partly Cloudy,290,2013-08-20 01:53:00
7:53 PM,71.1,59.0,66,29.84,10.0,West,10.4,-,N/A,,Clear,280,2013-08-20 02:53:00
8:53 PM,70.0,57.0,63,29.87,10.0,WSW,4.6,-,N/A,,Clear,240,2013-08-20 03:53:00
9:53 PM,69.8,59.0,68,29.88,10.0,SE,3.5,-,N/A,,Clear,130,2013-08-20 04:53:00
10:53 PM,69.8,55.4,60,29.90,10.0,SE,8.1,-,N/A,,Clear,130,2013-08-20 05:53:00
10:58 PM,69.8,55.4,60,29.89,10.0,SSE,6.9,-,N/A,Thunderstorm,Thunderstorm,160,2013-08-20 05:58:00
11:24 PM,69.8,55.4,60,29.90,10.0,Calm,Calm,-,N/A,,Clear,0,2013-08-20 06:24:00
11:53 PM,69.1,55.9,63,29.88,10.0,Calm,Calm,-,N/A,,Clear,0,2013-08-20 06:53:00